Tracking 29591 objects as of 19-Sep-2024
HD Live streaming from Space Station
objects crossing your sky now

STARLINK-32180

Track STARLINK-32180 now!
10-day predictions
STARLINK-32180 is classified as:


NORAD ID: 60374
Int'l Code: 2024-138V
Perigee: 453.8 km
Apogee: 455.2 km
Inclination: 53.2 °
Period: 93.5 minutes
Semi major axis: 6825 km
RCS: Unknown
Launch date: August 4, 2024
Source: United States (US)
Launch site: AIR FORCE WESTERN TEST RANGE (AFWTR)
Your satellite tracking list
Your tracking list is empty




NASA's NSSDC Master Catalog

Two Line Element Set (TLE):
1 60374U 24138V   24262.40947335 -.00002613  00000-0 -55438-4 0  9992
2 60374  53.1600 291.8895 0001001  69.4475 290.6637 15.39580295  8273
Source of the keplerian elements: AFSPC